,,,PA_Meas_PMT16A,,PR_Meas_QMR101_102,,RH_Meas_QMH101,,SR_Meas_QMS101,,TA_Meas_QMH101,,GenWind,,GenWind,
date,time,status,PA,status,PR,status,RH,status,SR,status,TA,status,DirAvg,status,SpdAvg,
2009-04-28, 00:00:05,VALID,1001.66,VALID,0,VALID,93.0737,VALID,0,VALID,23.6232,VALID,33,VALID,0.489844,
2009-04-28, 00:01:05,VALID,1001.66,VALID,0,VALID,93.1348,VALID,0,VALID,23.625,VALID,33,VALID,0.376563,
2009-04-28, 00:02:05,VALID,1001.64,VALID,0,VALID,93.15,VALID,0,VALID,23.625,VALID,33,VALID,0.330859,
2009-04-28, 00:03:05,VALID,1001.63,VALID,0,VALID,93.1348,VALID,0,VALID,23.6036,VALID,33,VALID,0.234766,
2009-04-28, 00:04:05,VALID,1001.64,VALID,0,VALID,93.234,VALID,0,VALID,23.6036,VALID,33,VALID,0.303125,
2009-04-28, 00:05:05,VALID,1001.64,VALID,0,VALID,93.295,VALID,0,VALID,23.6036,VALID,33,VALID,0.226953,
2009-04-28, 00:06:05,VALID,1001.65,VALID,0,VALID,93.356,VALID,0,VALID,23.6232,VALID,33,VALID,0.376172,
2009-04-28, 00:07:05,VALID,1001.63,VALID,0,VALID,93.4552,VALID,0,VALID,23.6232,VALID,33,VALID,0.415625,
2009-04-28, 00:08:05,VALID,1001.65,VALID,0,VALID,93.4628,VALID,0,VALID,23.6427,VALID,33,VALID,0.370313,
2009-04-28, 00:09:05,VALID,1001.64,VALID,0,VALID,93.44,VALID,0,VALID,23.664,VALID,33,VALID,0.327734,
2009-04-28, 00:10:05,VALID,1001.66,VALID,0,VALID,93.4552,VALID,0,VALID,23.6622,VALID,33,VALID,0.352734,
2009-04-28, 00:11:05,VALID,1001.62,VALID,0,VALID,93.4552,VALID,0,VALID,23.6622,VALID,33,VALID,0.459375,
2009-04-28, 00:12:05,VALID,1001.63,VALID,0,VALID,93.3103,VALID,0,VALID,23.6835,VALID,33,VALID,0.560156,
2009-04-28, 00:13:05,VALID,1001.62,VALID,0,VALID,93.1577,VALID,0,VALID,23.625,VALID,33,VALID,0.804688,
2009-04-28, 00:14:05,VALID,1001.6,VALID,0,VALID,93.4247,VALID,0,VALID,23.6445,VALID,33,VALID,0.833984,
2009-04-28, 00:15:05,VALID,1001.58,VALID,0,VALID,93.501,VALID,0,VALID,23.6232,VALID,33,VALID,0.854688,
2009-04-28, 00:16:05,VALID,1001.59,VALID,0,VALID,93.6154,VALID,0,VALID,23.6445,VALID,33,VALID,0.907031,
2009-04-28, 00:17:05,VALID,1001.58,VALID,0,VALID,93.5086,VALID,0,VALID,23.6445,VALID,33,VALID,0.853906,
2009-04-28, 00:18:05,VALID,1001.6,VALID,0,VALID,93.4857,VALID,0,VALID,23.625,VALID,33,VALID,0.839453,
2009-04-28, 00:19:05,VALID,1001.6,VALID,0,VALID,93.4323,VALID,0,VALID,23.6036,VALID,33,VALID,0.607031,
2009-04-28, 00:20:05,VALID,1001.57,VALID,0,VALID,93.2263,VALID,0,VALID,23.625,VALID,37,VALID,0.575391,
2009-04-28, 00:21:05,VALID,1001.6,VALID,0,VALID,92.7228,VALID,0,VALID,23.5859,VALID,54,VALID,0.682031,
2009-04-28, 00:22:05,VALID,1001.61,VALID,0,VALID,92.6923,VALID,0,VALID,23.5469,VALID,61,VALID,0.864453,
2009-04-28, 00:23:05,VALID,1001.59,VALID,0,VALID,92.8754,VALID,0,VALID,23.5061,VALID,62,VALID,0.722266,
2009-04-28, 00:24:05,VALID,1001.58,VALID,0,VALID,92.9593,VALID,0,VALID,23.5079,VALID,65,VALID,0.746094,
2009-04-28, 00:25:05,VALID,1001.58,VALID,0,VALID,93.1043,VALID,0,VALID,23.5079,VALID,66,VALID,0.728906,
2009-04-28, 00:26:05,VALID,1001.6,VALID,0,VALID,93.1653,VALID,0,VALID,23.4866,VALID,66,VALID,0.55625,
2009-04-28, 00:27:05,VALID,1001.63,VALID,0,VALID,93.1577,VALID,0,VALID,23.4884,VALID,67,VALID,0.558594,
2009-04-28, 00:28:05,VALID,1001.58,VALID,0,VALID,93.1119,VALID,0,VALID,23.4475,VALID,67,VALID,0.620703,
2009-04-28, 00:29:05,VALID,1001.56,VALID,0,VALID,93.3637,VALID,0,VALID,23.4688,VALID,67,VALID,0.682031,
2009-04-28, 00:30:05,VALID,1001.55,VALID,0,VALID,93.3408,VALID,0,VALID,23.4688,VALID,67,VALID,0.615234,
2009-04-28, 00:31:05,VALID,1001.54,VALID,0,VALID,93.4018,VALID,0,VALID,23.428,VALID,67,VALID,0.567578,
2009-04-28, 00:32:05,VALID,1001.53,VALID,0,VALID,93.3331,VALID,0,VALID,23.4085,VALID,67,VALID,0.298438,
2009-04-28, 00:33:05,VALID,1001.55,VALID,0,VALID,93.2263,VALID,0,VALID,23.3908,VALID,67,VALID,0.0164062,
2009-04-28, 00:34:05,VALID,1001.53,VALID,0,VALID,93.2187,VALID,0,VALID,23.35,VALID,67,VALID,0.000390625,
2009-04-28, 00:35:05,VALID,1001.51,VALID,0,VALID,93.3408,VALID,0,VALID,23.311,VALID,67,VALID,0.385156,
2009-04-28, 00:36:05,VALID,1001.51,VALID,0,VALID,93.5849,VALID,0,VALID,23.311,VALID,67,VALID,0.596094,
2009-04-28, 00:37:05,VALID,1001.44,VALID,0,VALID,93.6688,VALID,0,VALID,23.3323,VALID,75,VALID,0.881641,
2009-04-28, 00:38:05,VALID,1001.42,VALID,0,VALID,93.7604,VALID,0,VALID,23.35,VALID,77,VALID,0.946875,
2009-04-28, 00:39:05,VALID,1001.42,VALID,0,VALID,93.4705,VALID,0,VALID,23.311,VALID,77,VALID,0.556641,
2009-04-28, 00:40:05,VALID,1001.41,VALID,0,VALID,93.3255,VALID,0,VALID,23.2915,VALID,77,VALID,0.15625,
2009-04-28, 00:41:05,VALID,1001.4,VALID,0,VALID,93.5315,VALID,0,VALID,23.2915,VALID,77,VALID,0.608203,
2009-04-28, 00:42:05,VALID,1001.42,VALID,0,VALID,93.7146,VALID,0,VALID,23.35,VALID,77,VALID,0.373828,
2009-04-28, 00:43:05,VALID,1001.39,VALID,0,VALID,93.7909,VALID,0,VALID,23.3695,VALID,77,VALID,0.00195313,
2009-04-28, 00:44:05,VALID,1001.38,VALID,0,VALID,93.8367,VALID,0,VALID,23.389,VALID,77,VALID,0.683594,
2009-04-28, 00:45:05,VALID,1001.36,VALID,0,VALID,93.8214,VALID,0,VALID,23.389,VALID,99,VALID,0.723828,
2009-04-28, 00:46:05,VALID,1001.38,VALID,0,VALID,93.7223,VALID,0,VALID,23.4085,VALID,109,VALID,0.476172,
2009-04-28, 00:47:05,VALID,1001.36,VALID,0,VALID,93.7146,VALID,0,VALID,23.4085,VALID,114,VALID,0.449609,
2009-04-28, 00:48:05,VALID,1001.34,VALID,0,VALID,93.5391,VALID,0,VALID,23.4085,VALID,114,VALID,0.416406,
2009-04-28, 00:49:05,VALID,1001.37,VALID,0,VALID,93.562,VALID,0,VALID,23.4085,VALID,116,VALID,0.390234,
2009-04-28, 00:50:05,VALID,1001.39,VALID,0,VALID,93.7299,VALID,0,VALID,23.4475,VALID,116,VALID,0.401953,
2009-04-28, 00:51:05,VALID,1001.33,VALID,0,VALID,93.4934,VALID,0,VALID,23.4884,VALID,116,VALID,0.432422,
2009-04-28, 00:52:05,VALID,1001.34,VALID,0,VALID,93.6154,VALID,0,VALID,23.5061,VALID,116,VALID,0.602734,
2009-04-28, 00:53:05,VALID,1001.36,VALID,0,VALID,93.4018,VALID,0,VALID,23.5646,VALID,115,VALID,0.728906,
2009-04-28, 00:54:05,VALID,1001.33,VALID,0,VALID,93.028,VALID,0,VALID,23.6427,VALID,108,VALID,0.685938,
2009-04-28, 00:55:05,VALID,1001.31,VALID,0,VALID,92.4405,VALID,0,VALID,23.7225,VALID,105,VALID,0.852734,
2009-04-28, 00:56:05,VALID,1001.28,VALID,0,VALID,91.9751,VALID,0,VALID,23.7597,VALID,100,VALID,0.808984,
2009-04-28, 00:57:05,VALID,1001.26,VALID,0,VALID,91.5783,VALID,0,VALID,23.7793,VALID,100,VALID,0.698438,
2009-04-28, 00:58:05,VALID,1001.26,VALID,0,VALID,91.235,VALID,0,VALID,23.7988,VALID,100,VALID,0.582422,
2009-04-28, 00:59:05,VALID,1001.23,VALID,0,VALID,90.9985,VALID,0,VALID,23.8006,VALID,98,VALID,0.377344,
2009-04-28, 01:00:05,VALID,1001.2,VALID,0,VALID,91.1434,VALID,0,VALID,23.7616,VALID,98,VALID,0.315234,
2009-04-28, 01:01:05,VALID,1001.21,VALID,0,VALID,91.2579,VALID,0,VALID,23.742,VALID,98,VALID,0.240234,
2009-04-28, 01:02:05,VALID,1001.21,VALID,0,VALID,91.4105,VALID,0,VALID,23.7225,VALID,98,VALID,0.0703125,
2009-04-28, 01:03:05,VALID,1001.18,VALID,0,VALID,91.5326,VALID,0,VALID,23.6835,VALID,98,VALID,0,
2009-04-28, 01:04:05,VALID,1001.12,VALID,0,VALID,91.7691,VALID,0,VALID,23.6427,VALID,98,VALID,0,
2009-04-28, 01:05:05,VALID,1001.11,VALID,0,VALID,91.9674,VALID,0,VALID,23.6036,VALID,98,VALID,0,
2009-04-28, 01:06:05,VALID,1001.08,VALID,0,VALID,92.12,VALID,0,VALID,23.5841,VALID,98,VALID,0,
2009-04-28, 01:07:05,VALID,1001.06,VALID,0,VALID,92.3413,VALID,0,VALID,23.5841,VALID,98,VALID,0.132422,
2009-04-28, 01:08:05,VALID,1001,VALID,0,VALID,92.4328,VALID,0,VALID,23.5646,VALID,98,VALID,0.191797,
2009-04-28, 01:09:05,VALID,1000.98,VALID,0,VALID,92.6465,VALID,0,VALID,23.5841,VALID,134,VALID,0.755859,
2009-04-28, 01:10:05,VALID,1000.98,VALID,0,VALID,92.6465,VALID,0,VALID,23.6427,VALID,137,VALID,0.834766,
2009-04-28, 01:11:05,VALID,1000.97,VALID,0,VALID,92.2574,VALID,0,VALID,23.6427,VALID,147,VALID,0.487109,
2009-04-28, 01:12:05,VALID,1000.96,VALID,0,VALID,92.3718,VALID,0,VALID,23.6622,VALID,138,VALID,0.821094,
2009-04-28, 01:13:05,VALID,1000.94,VALID,0,VALID,92.3184,VALID,0,VALID,23.6817,VALID,136,VALID,0.763672,
2009-04-28, 01:14:05,VALID,1000.94,VALID,0,VALID,92.1582,VALID,0,VALID,23.7207,VALID,136,VALID,0.707031,
2009-04-28, 01:15:05,VALID,1000.98,VALID,0,VALID,91.9903,VALID,0,VALID,23.7402,VALID,136,VALID,0.723437,
2009-04-28, 01:16:05,VALID,1000.98,VALID,0,VALID,91.6928,VALID,0,VALID,23.7597,VALID,135,VALID,0.796484,
2009-04-28, 01:17:05,VALID,1001.01,VALID,0,VALID,91.6623,VALID,0,VALID,23.7597,VALID,133,VALID,0.882813,
2009-04-28, 01:18:05,VALID,1001,VALID,0,VALID,91.6699,VALID,0,VALID,23.7616,VALID,133,VALID,0.705859,
2009-04-28, 01:19:05,VALID,1000.98,VALID,0,VALID,91.7385,VALID,0,VALID,23.7402,VALID,133,VALID,0.569141,
2009-04-28, 01:20:05,VALID,1000.96,VALID,0,VALID,91.8377,VALID,0,VALID,23.7207,VALID,133,VALID,0.564844,
2009-04-28, 01:21:05,VALID,1000.96,VALID,0,VALID,91.7767,VALID,0,VALID,23.7012,VALID,133,VALID,0.439844,
2009-04-28, 01:22:05,VALID,1000.97,VALID,0,VALID,91.853,VALID,0,VALID,23.7012,VALID,133,VALID,0.248047,
2009-04-28, 01:23:05,VALID,1000.96,VALID,0,VALID,91.7614,VALID,0,VALID,23.6622,VALID,133,VALID,0.359766,
2009-04-28, 01:24:05,VALID,1000.95,VALID,0,VALID,92.0514,VALID,0,VALID,23.6427,VALID,146,VALID,0.678125,
2009-04-28, 01:25:05,VALID,1000.95,VALID,0,VALID,92.1582,VALID,0,VALID,23.664,VALID,149,VALID,0.86875,
2009-04-28, 01:26:05,VALID,1000.95,VALID,0,VALID,92.1506,VALID,0,VALID,23.6817,VALID,143,VALID,0.823047,
2009-04-28, 01:27:05,VALID,1000.94,VALID,0,VALID,91.9064,VALID,0,VALID,23.742,VALID,141,VALID,0.837891,
2009-04-28, 01:28:05,VALID,1000.91,VALID,0,VALID,91.6851,VALID,0,VALID,23.7207,VALID,135,VALID,0.881641,
2009-04-28, 01:29:05,VALID,1000.89,VALID,0,VALID,91.6394,VALID,0,VALID,23.7402,VALID,133,VALID,0.868359,
2009-04-28, 01:30:05,VALID,1000.87,VALID,0,VALID,91.7157,VALID,0,VALID,23.7207,VALID,141,VALID,0.894531,
2009-04-28, 01:31:05,VALID,1000.87,VALID,0,VALID,91.7691,VALID,0,VALID,23.7225,VALID,132,VALID,0.679297,
2009-04-28, 01:32:05,VALID,1000.88,VALID,0,VALID,91.7309,VALID,0,VALID,23.6817,VALID,133,VALID,0.343359,
2009-04-28, 01:33:05,VALID,1000.86,VALID,0,VALID,91.8301,VALID,0,VALID,23.6835,VALID,160,VALID,0.366797,
2009-04-28, 01:34:05,VALID,1000.81,VALID,0,VALID,91.9598,VALID,0,VALID,23.6427,VALID,160,VALID,0.344922,
2009-04-28, 01:35:05,VALID,1000.83,VALID,0,VALID,91.9827,VALID,0,VALID,23.6036,VALID,160,VALID,0.339453,
2009-04-28, 01:36:05,VALID,1000.79,VALID,0,VALID,92.1048,VALID,0,VALID,23.5841,VALID,150,VALID,0.535156,
2009-04-28, 01:37:05,VALID,1000.75,VALID,0,VALID,92.1887,VALID,0,VALID,23.6036,VALID,138,VALID,0.673437,
2009-04-28, 01:38:05,VALID,1000.75,VALID,0,VALID,92.0743,VALID,0,VALID,23.6054,VALID,139,VALID,0.566797,
2009-04-28, 01:39:05,VALID,1000.76,VALID,0,VALID,91.9827,VALID,0,VALID,23.5841,VALID,139,VALID,0.532422,
2009-04-28, 01:40:05,VALID,1000.76,VALID,0,VALID,91.9217,VALID,0,VALID,23.6054,VALID,139,VALID,0.169922,
2009-04-28, 01:41:05,VALID,1000.77,VALID,0,VALID,91.8988,VALID,0,VALID,23.5841,VALID,139,VALID,0.331641,
2009-04-28, 01:42:05,VALID,1000.77,VALID,0,VALID,91.998,VALID,0,VALID,23.5451,VALID,139,VALID,0.330859,
2009-04-28, 01:43:05,VALID,1000.79,VALID,0,VALID,92.0361,VALID,0,VALID,23.5256,VALID,138,VALID,0.552734,
2009-04-28, 01:44:05,VALID,1000.8,VALID,0,VALID,91.9522,VALID,0,VALID,23.5256,VALID,97,VALID,1.03047,
2009-04-28, 01:45:05,VALID,1000.76,VALID,0,VALID,91.8759,VALID,0,VALID,23.5079,VALID,106,VALID,0.765625,
2009-04-28, 01:46:05,VALID,1000.75,VALID,0,VALID,92.0285,VALID,0,VALID,23.4884,VALID,95,VALID,0.778906,
2009-04-28, 01:47:05,VALID,1000.76,VALID,0,VALID,92.059,VALID,0,VALID,23.4475,VALID,95,VALID,0.702344,
2009-04-28, 01:48:05,VALID,1000.74,VALID,0,VALID,92.1582,VALID,0,VALID,23.428,VALID,95,VALID,0.458203,
2009-04-28, 01:49:05,VALID,1000.75,VALID,0,VALID,92.204,VALID,0,VALID,23.4103,VALID,95,VALID,0.261719,
2009-04-28, 01:50:05,VALID,1000.75,VALID,0,VALID,92.3489,VALID,0,VALID,23.4103,VALID,95,VALID,0.285547,
2009-04-28, 01:51:05,VALID,1000.73,VALID,0,VALID,92.4328,VALID,0,VALID,23.3908,VALID,95,VALID,0.395703,
2009-04-28, 01:52:05,VALID,1000.74,VALID,0,VALID,92.4023,VALID,0,VALID,23.3518,VALID,95,VALID,0.51875,
2009-04-28, 01:53:05,VALID,1000.74,VALID,0,VALID,92.5091,VALID,0,VALID,23.3518,VALID,95,VALID,0.34375,
2009-04-28, 01:54:05,VALID,1000.76,VALID,0,VALID,92.41,VALID,0,VALID,23.3323,VALID,95,VALID,0.298438,
2009-04-28, 01:55:05,VALID,1000.74,VALID,0,VALID,92.471,VALID,0,VALID,23.3323,VALID,95,VALID,0.235938,
2009-04-28, 01:56:05,VALID,1000.74,VALID,0,VALID,92.4328,VALID,0,VALID,23.3127,VALID,95,VALID,0.241406,
2009-04-28, 01:57:05,VALID,1000.74,VALID,0,VALID,92.5244,VALID,0,VALID,23.2932,VALID,95,VALID,0.469141,
2009-04-28, 01:58:05,VALID,1000.69,VALID,0,VALID,92.8601,VALID,0,VALID,23.2932,VALID,95,VALID,0.503516,
2009-04-28, 01:59:05,VALID,1000.7,VALID,0,VALID,92.9745,VALID,0,VALID,23.3127,VALID,95,VALID,0.500391,
2009-04-28, 02:00:05,VALID,1000.7,VALID,0,VALID,93.0127,VALID,0,VALID,23.3323,VALID,95,VALID,0.309766,
2009-04-28, 02:01:05,VALID,1000.69,VALID,0,VALID,92.9745,VALID,0,VALID,23.3323,VALID,95,VALID,0.365625,
2009-04-28, 02:02:05,VALID,1000.69,VALID,0,VALID,92.9593,VALID,0,VALID,23.2932,VALID,95,VALID,0.275,
2009-04-28, 02:03:05,VALID,1000.7,VALID,0,VALID,92.9211,VALID,0,VALID,23.2915,VALID,95,VALID,0.367188,
2009-04-28, 02:04:05,VALID,1000.69,VALID,0,VALID,92.8906,VALID,0,VALID,23.2737,VALID,95,VALID,0.455078,
2009-04-28, 02:05:05,VALID,1000.67,VALID,0,VALID,92.6312,VALID,0,VALID,23.2347,VALID,38,VALID,0.509375,
2009-04-28, 02:06:05,VALID,1000.68,VALID,0,VALID,92.2421,VALID,0,VALID,23.1354,VALID,38,VALID,0.428125,
2009-04-28, 02:07:05,VALID,1000.66,VALID,0,VALID,92.4252,VALID,0,VALID,23.0769,VALID,38,VALID,0.388281,
2009-04-28, 02:08:05,VALID,1000.66,VALID,0,VALID,92.8296,VALID,0,VALID,23.0396,VALID,39,VALID,0.496484,
2009-04-28, 02:09:05,VALID,1000.68,VALID,0,VALID,92.944,VALID,0,VALID,22.9988,VALID,39,VALID,0.625,
2009-04-28, 02:10:05,VALID,1000.69,VALID,0,VALID,92.883,VALID,0,VALID,22.9811,VALID,38,VALID,0.696094,
2009-04-28, 02:11:05,VALID,1000.7,VALID,0,VALID,92.883,VALID,0,VALID,22.9225,VALID,39,VALID,0.567578,
2009-04-28, 02:12:05,VALID,1000.7,VALID,0,VALID,92.9669,VALID,0,VALID,22.8835,VALID,39,VALID,0.441406,
2009-04-28, 02:13:05,VALID,1000.69,VALID,0,VALID,93.0356,VALID,0,VALID,22.8445,VALID,39,VALID,0.512109,
2009-04-28, 02:14:05,VALID,1000.72,VALID,0,VALID,93.0966,VALID,0,VALID,22.8055,VALID,39,VALID,0.476172,
2009-04-28, 02:15:05,VALID,1000.7,VALID,0,VALID,93.295,VALID,0,VALID,22.7647,VALID,39,VALID,0.649219,
2009-04-28, 02:16:05,VALID,1000.68,VALID,0,VALID,93.707,VALID,0,VALID,22.8055,VALID,39,VALID,0.880859,
2009-04-28, 02:17:05,VALID,1000.68,VALID,0,VALID,93.9359,VALID,0,VALID,22.8445,VALID,38,VALID,0.925391,
2009-04-28, 02:18:05,VALID,1000.64,VALID,0,VALID,93.8748,VALID,0,VALID,22.8427,VALID,38,VALID,0.853906,
2009-04-28, 02:19:05,VALID,1000.65,VALID,0,VALID,93.5849,VALID,0,VALID,22.8232,VALID,34,VALID,0.804688,
2009-04-28, 02:20:05,VALID,1000.68,VALID,0,VALID,93.5697,VALID,0,VALID,22.7842,VALID,34,VALID,0.717578,
2009-04-28, 02:21:05,VALID,1000.69,VALID,0,VALID,93.7299,VALID,0,VALID,22.8037,VALID,34,VALID,0.473047,
2009-04-28, 02:22:05,VALID,1000.68,VALID,0,VALID,93.7909,VALID,0,VALID,22.8037,VALID,34,VALID,0.525,
2009-04-28, 02:23:05,VALID,1000.69,VALID,0,VALID,93.8672,VALID,0,VALID,22.8657,VALID,34,VALID,0.308984,
2009-04-28, 02:24:05,VALID,1000.7,VALID,0,VALID,93.9283,VALID,0,VALID,22.8427,VALID,34,VALID,0.271484,
2009-04-28, 02:25:05,VALID,1000.7,VALID,0,VALID,93.9511,VALID,0,VALID,22.8623,VALID,34,VALID,0.417188,
2009-04-28, 02:26:05,VALID,1000.68,VALID,0,VALID,93.9435,VALID,0,VALID,22.864,VALID,34,VALID,0.515625,
2009-04-28, 02:27:05,VALID,1000.66,VALID,0,VALID,94.0427,VALID,0,VALID,22.8818,VALID,34,VALID,0.429297,
2009-04-28, 02:28:05,VALID,1000.64,VALID,0,VALID,94.0198,VALID,0,VALID,22.8818,VALID,34,VALID,0.554297,
2009-04-28, 02:29:05,VALID,1000.61,VALID,0,VALID,93.9969,VALID,0,VALID,22.9225,VALID,34,VALID,0.397656,
2009-04-28, 02:30:05,VALID,1000.58,VALID,0,VALID,93.5315,VALID,0,VALID,22.8232,VALID,34,VALID,0.341797,
2009-04-28, 02:31:05,VALID,1000.58,VALID,0,VALID,93.6231,VALID,0,VALID,22.8055,VALID,34,VALID,0.391406,
2009-04-28, 02:32:05,VALID,1000.57,VALID,0,VALID,93.7604,VALID,0,VALID,22.8037,VALID,34,VALID,0.155078,
2009-04-28, 02:33:05,VALID,1000.61,VALID,0,VALID,93.6765,VALID,0,VALID,22.786,VALID,34,VALID,0.305078,
2009-04-28, 02:34:05,VALID,1000.64,VALID,0,VALID,93.8901,VALID,0,VALID,22.7842,VALID,34,VALID,0.217578,
2009-04-28, 02:35:05,VALID,1000.64,VALID,0,VALID,94.0732,VALID,0,VALID,22.8037,VALID,34,VALID,0.282031,
2009-04-28, 02:36:04,VALID,1000.67,VALID,0,VALID,94.1648,VALID,0,VALID,22.825,VALID,38,VALID,0.504687,
2009-04-28, 02:37:04,VALID,1000.7,VALID,0,VALID,94.1724,VALID,0,VALID,22.8232,VALID,63,VALID,0.803516,
2009-04-28, 02:38:04,VALID,1000.7,VALID,0,VALID,94.0045,VALID,0.112286,VALID,22.8427,VALID,65,VALID,0.576563,
2009-04-28, 02:39:04,VALID,1000.69,VALID,0,VALID,93.9511,VALID,0,VALID,22.8623,VALID,65,VALID,0.598047,
2009-04-28, 02:40:04,VALID,1000.71,VALID,0,VALID,93.9511,VALID,0,VALID,22.8818,VALID,65,VALID,0.570703,
2009-04-28, 02:41:04,VALID,1000.71,VALID,0,VALID,93.7146,VALID,0,VALID,22.9208,VALID,65,VALID,0.576953,
2009-04-28, 02:42:04,VALID,1000.69,VALID,0,VALID,93.3103,VALID,0,VALID,22.9403,VALID,65,VALID,0.322656,
2009-04-28, 02:43:04,VALID,1000.7,VALID,0,VALID,92.9288,VALID,0,VALID,22.9598,VALID,65,VALID,0.125,
2009-04-28, 02:44:04,VALID,1000.65,VALID,0,VALID,92.8525,VALID,0,VALID,22.9793,VALID,64,VALID,0.327344,
2009-04-28, 02:45:04,VALID,1000.7,VALID,0,VALID,92.6541,VALID,0,VALID,22.9988,VALID,25,VALID,0.679688,
2009-04-28, 02:46:04,VALID,1000.68,VALID,0,VALID,92.532,VALID,0.112286,VALID,23.0378,VALID,24,VALID,0.283984,
2009-04-28, 02:47:04,VALID,1000.71,VALID,0,VALID,92.3108,VALID,0,VALID,23.0166,VALID,24,VALID,0.207813,
2009-04-28, 02:48:04,VALID,1000.71,VALID,0,VALID,92.326,VALID,0,VALID,23.0378,VALID,24,VALID,0.267969,
2009-04-28, 02:49:04,VALID,1000.68,VALID,0,VALID,92.5091,VALID,0.112286,VALID,23.0378,VALID,24,VALID,0.352344,
2009-04-28, 02:50:04,VALID,1000.71,VALID,0,VALID,92.326,VALID,0,VALID,23.0378,VALID,24,VALID,0.6,
2009-04-28, 02:51:04,VALID,1000.7,VALID,0,VALID,92.2574,VALID,0,VALID,23.0396,VALID,24,VALID,0.727734,
2009-04-28, 02:52:04,VALID,1000.73,VALID,0,VALID,92.5778,VALID,0,VALID,23.0378,VALID,30,VALID,0.785156,
2009-04-28, 02:53:04,VALID,1000.71,VALID,0,VALID,92.7228,VALID,0,VALID,23.0769,VALID,47,VALID,0.735937,
2009-04-28, 02:54:04,VALID,1000.7,VALID,0,VALID,92.3489,VALID,0,VALID,23.1159,VALID,47,VALID,0.676562,
2009-04-28, 02:55:04,VALID,1000.71,VALID,0,VALID,91.9751,VALID,0,VALID,23.1159,VALID,47,VALID,0.4875,
2009-04-28, 02:56:04,VALID,1000.69,VALID,0,VALID,92.0209,VALID,0,VALID,23.1159,VALID,46,VALID,0.56875,
2009-04-28, 02:57:04,VALID,1000.67,VALID,0,VALID,92.0437,VALID,0,VALID,23.1354,VALID,33,VALID,0.791016,
2009-04-28, 02:58:04,VALID,1000.68,VALID,0,VALID,91.6546,VALID,0.112286,VALID,23.0946,VALID,20,VALID,0.93125,
2009-04-28, 02:59:04,VALID,1000.71,VALID,0,VALID,91.586,VALID,0,VALID,23.0769,VALID,15,VALID,1.08906,
2009-04-28, 03:00:04,VALID,1000.7,VALID,0,VALID,91.9598,VALID,0,VALID,23.0786,VALID,15,VALID,1.04844,
2009-04-28, 03:01:04,VALID,1000.73,VALID,0,VALID,91.9064,VALID,0,VALID,23.0591,VALID,18,VALID,1.07969,
2009-04-28, 03:02:04,VALID,1000.72,VALID,0,VALID,91.5478,VALID,0,VALID,22.9988,VALID,30,VALID,1.34844,
2009-04-28, 03:03:04,VALID,1000.75,VALID,0,VALID,91.4028,VALID,0,VALID,22.9208,VALID,38,VALID,1.1625,
2009-04-28, 03:04:04,VALID,1000.78,VALID,0,VALID,91.6928,VALID,0.112286,VALID,22.8427,VALID,31,VALID,0.649219,
2009-04-28, 03:05:04,VALID,1000.81,VALID,0,VALID,92.2803,VALID,0,VALID,22.7842,VALID,348,VALID,0.751953,
2009-04-28, 03:06:04,VALID,1000.76,VALID,0,VALID,92.8983,VALID,0,VALID,22.7647,VALID,340,VALID,0.529688,
2009-04-28, 03:07:04,VALID,1000.73,VALID,0,VALID,93.2721,VALID,0,VALID,22.7842,VALID,345,VALID,0.509766,
2009-04-28, 03:08:04,VALID,1000.69,VALID,0,VALID,93.4018,VALID,0,VALID,22.825,VALID,21,VALID,0.753125,
2009-04-28, 03:09:04,VALID,1000.67,VALID,0,VALID,93.4628,VALID,0,VALID,22.8445,VALID,37,VALID,0.787891,
2009-04-28, 03:10:04,VALID,1000.67,VALID,0,VALID,93.3103,VALID,0,VALID,22.8427,VALID,38,VALID,0.958984,
2009-04-28, 03:11:04,VALID,1000.7,VALID,0,VALID,93.1043,VALID,0,VALID,22.8623,VALID,38,VALID,0.766797,
2009-04-28, 03:12:04,VALID,1000.69,VALID,0,VALID,92.8067,VALID,0,VALID,22.8818,VALID,38,VALID,0.733984,
2009-04-28, 03:13:04,VALID,1000.67,VALID,0,VALID,92.677,VALID,0,VALID,22.8818,VALID,35,VALID,0.849219,
2009-04-28, 03:14:04,VALID,1000.7,VALID,0,VALID,92.5244,VALID,0,VALID,22.8835,VALID,35,VALID,0.433984,
2009-04-28, 03:15:04,VALID,1000.71,VALID,0,VALID,92.4176,VALID,0,VALID,22.8232,VALID,35,VALID,0.015625,
2009-04-28, 03:16:04,VALID,1000.71,VALID,0,VALID,92.4634,VALID,0,VALID,22.8037,VALID,35,VALID,0.304688,
2009-04-28, 03:17:04,VALID,1000.69,VALID,0,VALID,92.9593,VALID,0,VALID,22.8037,VALID,35,VALID,0.705859,
2009-04-28, 03:18:04,VALID,1000.68,VALID,0,VALID,93.1424,VALID,0.112286,VALID,22.8427,VALID,44,VALID,0.826953,
2009-04-28, 03:19:04,VALID,1000.66,VALID,0,VALID,92.9898,VALID,0,VALID,22.8232,VALID,44,VALID,0.832812,
2009-04-28, 03:20:04,VALID,1000.64,VALID,0,VALID,92.6465,VALID,0,VALID,22.8232,VALID,44,VALID,0.718359,
2009-04-28, 03:21:04,VALID,1000.64,VALID,0,VALID,92.4863,VALID,0.112286,VALID,22.8037,VALID,44,VALID,0.967188,
2009-04-28, 03:22:04,VALID,1000.67,VALID,0,VALID,93.2645,VALID,0.112286,VALID,22.8232,VALID,44,VALID,0.799609,
2009-04-28, 03:23:04,VALID,1000.61,VALID,0,VALID,92.9288,VALID,0,VALID,22.8037,VALID,55,VALID,0.392969,
2009-04-28, 03:24:04,VALID,1000.66,VALID,0,VALID,92.4405,VALID,0,VALID,22.7842,VALID,55,VALID,0.192578,
2009-04-28, 03:25:04,VALID,1000.65,VALID,0,VALID,92.4863,VALID,0,VALID,22.7452,VALID,55,VALID,0,
2009-04-28, 03:26:04,VALID,1000.69,VALID,0,VALID,92.8754,VALID,0,VALID,22.7452,VALID,57,VALID,0.370703,
2009-04-28, 03:27:04,VALID,1000.67,VALID,0,VALID,93.0508,VALID,0,VALID,22.7257,VALID,57,VALID,0.388672,
2009-04-28, 03:28:04,VALID,1000.65,VALID,0,VALID,93.1729,VALID,0,VALID,22.7257,VALID,82,VALID,0.532812,
2009-04-28, 03:29:04,VALID,1000.65,VALID,0,VALID,93.44,VALID,0,VALID,22.7452,VALID,107,VALID,0.598828,
2009-04-28, 03:30:04,VALID,1000.64,VALID,0,VALID,93.5544,VALID,0,VALID,22.7647,VALID,107,VALID,0.574609,
2009-04-28, 03:31:04,VALID,1000.62,VALID,0,VALID,93.15,VALID,0,VALID,22.7257,VALID,101,VALID,0.624219,
2009-04-28, 03:32:04,VALID,1000.62,VALID,0,VALID,93.0432,VALID,0,VALID,22.7062,VALID,62,VALID,0.662109,
2009-04-28, 03:33:04,VALID,1000.62,VALID,0,VALID,93.4552,VALID,0,VALID,22.7257,VALID,52,VALID,0.796875,
2009-04-28, 03:34:04,VALID,1000.64,VALID,0,VALID,93.5391,VALID,0,VALID,22.7452,VALID,52,VALID,0.710938,
2009-04-28, 03:35:04,VALID,1000.67,VALID,0,VALID,93.3942,VALID,0,VALID,22.7647,VALID,52,VALID,0.791797,
2009-04-28, 03:36:04,VALID,1000.7,VALID,0,VALID,93.234,VALID,0,VALID,22.7452,VALID,51,VALID,0.858594,
2009-04-28, 03:37:04,VALID,1000.71,VALID,0,VALID,93.3942,VALID,0,VALID,22.7647,VALID,51,VALID,0.749219,
2009-04-28, 03:38:04,VALID,1000.75,VALID,0,VALID,92.8983,VALID,0,VALID,22.7257,VALID,51,VALID,0.619531,
2009-04-28, 03:39:04,VALID,1000.75,VALID,0,VALID,92.6007,VALID,0,VALID,22.6867,VALID,51,VALID,0.490625,
2009-04-28, 03:40:04,VALID,1000.75,VALID,0,VALID,93.1653,VALID,0,VALID,22.6477,VALID,51,VALID,0.613281,
2009-04-28, 03:41:04,VALID,1000.75,VALID,0,VALID,93.2416,VALID,0.112286,VALID,22.6477,VALID,54,VALID,0.598828,
2009-04-28, 03:42:04,VALID,1000.73,VALID,0,VALID,93.3942,VALID,0,VALID,22.6477,VALID,66,VALID,0.634766,
2009-04-28, 03:43:04,VALID,1000.74,VALID,0,VALID,93.7299,VALID,0,VALID,22.7079,VALID,66,VALID,0.610156,
2009-04-28, 03:44:04,VALID,1000.75,VALID,0,VALID,93.6994,VALID,0,VALID,22.7062,VALID,66,VALID,0.578125,
2009-04-28, 03:45:04,VALID,1000.73,VALID,0,VALID,93.5315,VALID,0,VALID,22.7274,VALID,66,VALID,0.576172,
2009-04-28, 03:46:04,VALID,1000.72,VALID,0,VALID,93.3866,VALID,0,VALID,22.7062,VALID,70,VALID,0.692969,